M I D A S
Marine Information and Data Acquisition System
Tripno 2061 of the Zeeleeuw from 2011-03-21 07:44:49 to 2011-03-21 15:48:16
Back to CruiseResearch ActivitiesStationsMapUnderway DataData graphs

EquipmentUnitsComment
TimeDGPSUTC
LatitudeDGPSDM.mWGS84
LongitudeDGPSDM.mWGS84
TemperatureSBE03/SBE38deg celciusITS90
ConductivitySBE21S/mITS90
SalinitySBE21 Practical Salinity Units
ChlorophylAChelsea fluorimeterg/lCalibrated in Aceton
Missing or incorrect values are displayed as -999
Sea surface data collected by the RV Zeeleeuw from 2011-03-21 07:44:43 to 2011-03-21 15:49:14
Time Latitude Longitude Temperature Conductivity Salinity ChlorophylA
2011-03-21 07:45:49 51°13.677 2°55.896 13.9343 0.004568 0.028425 -3.020363
2011-03-21 07:46:48 51°13.692 2°55.797 13.9076 0.004568 0.028426 -3.020363
2011-03-21 07:47:48 51°13.702 2°55.78 13.8467 0.004568 0.028428 -3.020363
2011-03-21 07:48:48 51°13.711 2°55.766 13.9495 0.004568 0.02843 -3.020363
2011-03-21 07:49:47 51°13.762 2°55.704 13.7431 0.004568 0.028431 -3.020363
2011-03-21 07:50:48 51°13.854 2°55.62 13.7073 0.004568 0.028432 -3.020363
2011-03-21 07:51:48 51°13.961 2°55.542 13.7571 0.004568 0.028433 -3.020363
2011-03-21 07:52:49 51°14.072 2°55.462 13.8229 0.004568 0.028435 -3.020363
2011-03-21 07:53:48 51°14.177 2°55.376 13.8078 0.004568 0.028437 -3.020363
2011-03-21 07:54:48 51°14.28 2°55.278 13.8188 0.004568 0.028438 -3.020363
2011-03-21 07:55:48 51°14.395 2°55.16 13.7513 0.004568 0.02844 -3.020363
2011-03-21 07:56:47 51°14.536 2°55.013 13.8227 0.004568 0.028441 -3.020363
2011-03-21 07:57:45 51°14.67 2°54.837 13.8167 0.004568 0.028443 -3.020363
2011-03-21 07:58:45 51°14.828 2°54.661 13.6098 0.004568 0.028444 -3.020363
2011-03-21 07:59:45 51°15.003 2°54.491 13.7313 0.004568 0.028446 -3.020363
2011-03-21 08:00:45 51°15.16 2°54.277 13.6048 0.004568 0.028447 -3.020363
2011-03-21 08:01:45 51°15.316 2°54.056 13.586 0.004568 0.028449 -3.020363
2011-03-21 08:02:45 51°15.477 2°53.843 13.7149 0.004568 0.028451 -3.020363
2011-03-21 08:03:45 51°15.638 2°53.631 13.6994 0.004568 0.028454 -3.020363
2011-03-21 08:04:45 51°15.807 2°53.442 13.6288 0.004568 0.028456 -3.020363
2011-03-21 08:05:45 51°15.985 2°53.284 13.7166 0.004568 0.02846 -3.020363
2011-03-21 08:06:45 51°16.16 2°53.12 13.7044 0.004568 0.028463 -3.020363
2011-03-21 08:07:45 51°16.337 2°52.965 13.6566 0.004568 0.028466 -3.020363
2011-03-21 08:08:45 51°16.515 2°52.82 13.5789 0.004568 0.028469 -3.020363
2011-03-21 08:09:45 51°16.698 2°52.699 13.7167 0.004568 0.028471 -3.020363
2011-03-21 08:10:45 51°16.871 2°52.567 13.568 0.004568 0.028474 -3.020363
2011-03-21 08:11:45 51°17.052 2°52.471 13.7267 0.004568 0.028477 -3.020363
2011-03-21 08:12:45 51°17.229 2°52.353 13.6698 0.004568 0.028479 -3.020363
2011-03-21 08:13:45 51°17.408 2°52.236 13.7233 0.004568 0.028482 -3.020363
2011-03-21 08:14:45 51°17.585 2°52.111 13.7008 0.004568 0.028484 -3.020363
2011-03-21 08:15:45 51°17.762 2°51.995 13.6908 0.004568 0.028487 -3.020363
2011-03-21 08:16:45 51°17.937 2°51.868 13.6918 0.004568 0.02849 -3.020363
2011-03-21 08:17:45 51°18.123 2°51.741 13.6644 0.004568 0.028493 -3.020363
2011-03-21 08:18:45 51°18.31 2°51.607 13.7037 0.004568 0.028496 -3.020363
2011-03-21 08:19:45 51°18.5 2°51.472 13.7337 0.004568 0.028499 -3.020363
2011-03-21 08:20:45 51°18.688 2°51.326 13.7293 0.004568 0.028502 -3.020363
2011-03-21 08:21:45 51°18.877 2°51.18 13.748 0.004568 0.028505 -3.020363
2011-03-21 08:22:45 51°19.063 2°51.027 13.7563 0.004568 0.028507 -3.020363
2011-03-21 08:23:45 51°19.248 2°50.874 13.7135 0.004568 0.02851 -3.020363
2011-03-21 08:24:45 51°19.434 2°50.721 13.7495 0.004568 0.028512 -3.020363
2011-03-21 08:25:45 51°19.623 2°50.579 13.7036 0.004568 0.028514 -3.020363
2011-03-21 08:26:45 51°19.813 2°50.435 13.6994 0.004568 0.028516 -3.020363
2011-03-21 08:27:45 51°20.005 2°50.287 13.761 0.004568 0.028518 -3.020363
2011-03-21 08:28:45 51°20.197 2°50.134 13.7604 0.004568 0.02852 -3.020363
2011-03-21 08:29:45 51°20.39 2°49.979 13.7385 0.004568 0.028522 -3.020363
2011-03-21 08:30:45 51°20.587 2°49.839 13.7619 0.004568 0.028524 -3.020363
2011-03-21 08:31:45 51°20.786 2°49.697 13.7868 0.004568 0.028525 -3.020363
2011-03-21 08:32:45 51°20.984 2°49.555 13.777 0.004568 0.028527 -3.020363
2011-03-21 08:33:45 51°21.183 2°49.415 13.7636 0.004568 0.028528 -3.020363
2011-03-21 08:34:45 51°21.383 2°49.278 13.827 0.004568 0.02853 -3.020363
2011-03-21 08:35:45 51°21.582 2°49.141 13.8428 0.004568 0.028531 -3.020363
2011-03-21 08:36:45 51°21.783 2°49.002 13.8196 0.004568 0.028532 -3.020363
2011-03-21 08:37:45 51°21.984 2°48.865 13.8359 0.004568 0.028534 -3.020363
2011-03-21 08:38:45 51°22.188 2°48.732 13.688 0.004568 0.028535 -3.020363
2011-03-21 08:39:45 51°22.394 2°48.697 13.754 0.004568 0.028537 -3.020363
2011-03-21 08:40:45 51°22.593 2°48.69 13.8134 0.004568 0.028538 -3.020363
2011-03-21 08:41:45 51°22.788 2°48.673 13.8309 0.004568 0.02854 -3.020363
2011-03-21 08:42:45 51°22.983 2°48.652 13.8147 0.004568 0.028541 -3.020363
2011-03-21 08:43:45 51°23.178 2°48.62 13.9117 0.004568 0.028543 -3.020363
2011-03-21 08:44:45 51°23.366 2°48.479 13.8662 0.004568 0.028544 -3.020363
2011-03-21 08:45:45 51°23.551 2°48.311 13.8214 0.004568 0.028545 -3.020363
2011-03-21 08:46:45 51°23.733 2°48.136 13.8938 0.004568 0.028546 -3.020363
2011-03-21 08:47:45 51°23.907 2°47.942 13.913 0.004568 0.028547 -3.020363
2011-03-21 08:48:45 51°24.078 2°47.742 13.8836 0.004568 0.028549 -3.020363
2011-03-21 08:49:45 51°24.252 2°47.548 13.9104 0.004568 0.02855 -3.020363
2011-03-21 08:50:45 51°24.424 2°47.346 13.9273 0.004568 0.028551 -3.020363
2011-03-21 08:51:45 51°24.596 2°47.136 13.9304 0.004568 0.028552 -3.020363
2011-03-21 08:52:45 51°24.769 2°46.925 13.938 0.004568 0.028554 -3.020363
2011-03-21 08:53:45 51°24.942 2°46.715 13.9812 0.004568 0.028556 -3.020363
2011-03-21 08:54:45 51°25.114 2°46.506 13.9709 0.004568 0.028557 -3.020363
2011-03-21 08:55:45 51°25.29 2°46.306 13.9564 0.004568 0.028558 -3.020363
2011-03-21 08:56:45 51°25.477 2°46.163 14.013 0.004568 0.02856 -3.020363
2011-03-21 08:57:45 51°25.66 2°46.008 14.0164 0.004568 0.028561 -3.020363
2011-03-21 08:58:45 51°25.844 2°45.866 14.0172 0.004568 0.028562 -3.020363
2011-03-21 08:59:45 51°26.03 2°45.73 14.0097 0.004568 0.028563 -3.020363
2011-03-21 09:00:45 51°26.215 2°45.592 14.058 0.004568 0.028564 -3.020363
2011-03-21 09:01:45 51°26.399 2°45.45 14.0658 0.004465 0.028097 -3.020363
2011-03-21 09:02:45 51°26.585 2°45.306 14.0688 0.004568 0.028567 -3.020363
2011-03-21 09:03:45 51°26.773 2°45.163 14.0888 0.004568 0.028568 -3.020363
2011-03-21 09:04:45 51°26.962 2°45.021 14.0916 0.004465 0.028101 -3.020363
2011-03-21 09:05:45 51°27.152 2°44.888 14.0988 0.004465 0.028102 -3.020363
2011-03-21 09:06:45 51°27.341 2°44.754 14.09 0.004568 0.028571 -3.020363
2011-03-21 09:07:45 51°27.53 2°44.624 14.1574 0.004465 0.028104 -3.020363
2011-03-21 09:08:45 51°27.718 2°44.48 14.1461 0.004568 0.028573 -3.020363
2011-03-21 09:09:45 51°27.907 2°44.332 14.1503 0.004465 0.028106 -3.020363
2011-03-21 09:10:45 51°28.095 2°44.188 14.1535 0.004465 0.028107 -3.020363
2011-03-21 09:11:45 51°28.284 2°44.053 14.1979 0.004465 0.028107 -3.020363
2011-03-21 09:12:45 51°28.47 2°43.916 14.1543 0.004465 0.028108 -3.020363
2011-03-21 09:13:45 51°28.656 2°43.782 14.1756 0.004465 0.028109 -3.020363
2011-03-21 09:14:45 51°28.842 2°43.651 14.2126 0.004465 0.02811 -3.020363
2011-03-21 09:15:45 51°29.025 2°43.511 14.2172 0.004465 0.028111 -3.020363
2011-03-21 09:16:45 51°29.204 2°43.359 14.238 0.004465 0.028113 -3.020363
2011-03-21 09:17:45 51°29.383 2°43.207 14.2352 0.004465 0.028114 -3.020363
2011-03-21 09:18:45 51°29.568 2°43.104 14.0509 0.004465 0.028115 -3.020363
2011-03-21 09:19:45 51°29.736 2°43.221 14.221 0.004465 0.028117 -3.020363
2011-03-21 09:20:45 51°29.904 2°43.339 14.1915 0.004465 0.028118 -3.020363
2011-03-21 09:21:45 51°30.081 2°43.436 14.2267 0.004465 0.028121 -3.020363
2011-03-21 09:22:45 51°30.257 2°43.527 14.2411 0.004465 0.028125 -3.020363
2011-03-21 09:23:45 51°30.432 2°43.617 14.2575 0.004465 0.02813 -3.020363
2011-03-21 09:24:45 51°30.607 2°43.704 14.259 0.004465 0.028136 -3.020363
2011-03-21 09:25:45 51°30.782 2°43.79 14.3076 0.004465 0.028141 -3.020363
2011-03-21 09:26:45 51°30.958 2°43.876 14.3115 0.004465 0.028146 -3.020363
2011-03-21 09:27:45 51°31.133 2°43.962 14.3352 0.004465 0.02815 -3.020363
2011-03-21 09:28:45 51°31.309 2°44.045 14.3368 0.004465 0.028155 -3.020363
2011-03-21 09:29:45 51°31.485 2°44.129 14.3795 0.004465 0.028159 -3.020363
2011-03-21 09:30:45 51°31.661 2°44.208 14.3638 0.004465 0.028163 -3.020363
2011-03-21 09:31:45 51°31.836 2°44.286 14.3813 0.004465 0.028166 -3.020363
2011-03-21 09:32:45 51°32.012 2°44.363 14.4114 0.004465 0.028168 -3.020363
2011-03-21 09:33:45 51°32.188 2°44.441 14.4169 0.004465 0.02817 -3.020363
2011-03-21 09:34:45 51°32.363 2°44.52 14.4341 0.004465 0.028172 -3.020363
2011-03-21 09:35:45 51°32.538 2°44.601 14.4402 0.004465 0.028173 -3.020363
2011-03-21 09:36:45 51°32.714 2°44.685 14.4192 0.004465 0.028174 -3.020363
2011-03-21 09:37:45 51°32.889 2°44.767 14.4367 0.004465 0.028177 -3.020363
2011-03-21 09:38:45 51°33.065 2°44.851 14.4925 0.004465 0.028179 -3.020363
2011-03-21 09:39:45 51°33.24 2°44.937 14.4902 0.004465 0.028182 -3.020363
2011-03-21 09:40:45 51°33.416 2°45.021 14.4887 0.004465 0.028184 -3.020363
2011-03-21 09:41:45 51°33.591 2°45.109 14.5378 0.004465 0.028187 -3.020363
2011-03-21 09:42:45 51°33.765 2°45.195 14.436 0.004465 0.028186 -3.020363
2011-03-21 09:43:45 51°33.938 2°45.283 14.4566 0.004465 0.02819 -3.020363
2011-03-21 09:44:45 51°34.112 2°45.373 14.4811 0.004465 0.028193 -3.020363
2011-03-21 09:45:45 51°34.288 2°45.462 14.495 0.004465 0.028197 -3.020363
2011-03-21 09:46:45 51°34.463 2°45.551 14.5246 0.004465 0.028201 -3.020363
2011-03-21 09:47:45 51°34.64 2°45.636 14.5371 0.004465 0.028204 -3.020363
2011-03-21 09:48:45 51°34.818 2°45.723 14.5723 0.004465 0.028208 -3.020363
2011-03-21 09:49:45 51°34.996 2°45.805 14.5884 0.004465 0.02821 -3.020363
2011-03-21 09:50:45 51°35.173 2°45.892 14.6142 0.004465 0.028212 -3.020363
2011-03-21 09:51:45 51°35.354 2°45.971 14.6392 0.004465 0.028214 -3.020363
2011-03-21 09:52:45 51°35.535 2°46.051 14.662 0.004465 0.028215 -3.020363
2011-03-21 09:53:45 51°35.717 2°46.131 14.6819 0.004465 0.028216 -3.020363
2011-03-21 09:54:45 51°35.899 2°46.214 14.7028 0.004465 0.028216 -3.020363
2011-03-21 09:55:45 51°36.081 2°46.297 14.7169 0.004465 0.028216 -3.020363
2011-03-21 09:56:45 51°36.264 2°46.384 14.747 0.004465 0.028216 -3.020363
2011-03-21 09:57:45 51°36.447 2°46.468 14.7709 0.004465 0.028216 -3.020363
2011-03-21 09:58:45 51°36.629 2°46.558 14.793 0.004465 0.028217 -3.020363
2011-03-21 09:59:45 51°36.811 2°46.654 14.8135 0.004465 0.028217 -3.020363
2011-03-21 10:00:45 51°36.992 2°46.747 14.84 0.004465 0.028217 -3.020363
2011-03-21 10:01:45 51°37.174 2°46.841 14.8788 0.004465 0.028217 -3.020363
2011-03-21 10:02:45 51°37.354 2°46.94 14.8855 0.004465 0.028217 -3.020363
2011-03-21 10:03:45 51°37.532 2°47.054 14.9042 0.004465 0.028217 -3.020363
2011-03-21 10:04:45 51°37.705 2°47.176 14.9358 0.004465 0.028217 -3.020363
2011-03-21 10:05:45 51°37.876 2°47.289 14.9749 0.004465 0.028218 -3.020363
2011-03-21 10:06:45 51°38.031 2°47.396 14.9748 0.004465 0.028218 -3.020363
2011-03-21 10:07:45 51°38.185 2°47.508 15.0339 0.004465 0.028218 -3.020363
2011-03-21 10:08:45 51°38.338 2°47.614 15.0494 0.004465 0.028218 -3.020363
2011-03-21 10:09:45 51°38.494 2°47.7 15.0601 0.004465 0.028218 -3.020363
2011-03-21 10:10:45 51°38.646 2°47.811 15.1047 0.004465 0.028219 -3.020363
2011-03-21 10:11:45 51°38.806 2°47.894 15.0723 0.004465 0.028219 -3.020363
2011-03-21 10:12:45 51°38.964 2°47.986 15.1465 0.004465 0.028219 -3.020363
2011-03-21 10:13:45 51°39.121 2°48.08 15.1667 0.004465 0.028219 -3.020363
2011-03-21 10:14:45 51°39.28 2°48.169 15.1781 0.004465 0.028219 -3.020363
2011-03-21 10:15:45 51°39.438 2°48.259 15.2016 0.004465 0.02822 -3.020363
2011-03-21 10:16:45 51°39.59 2°48.371 15.2225 0.004465 0.02822 -3.020363
2011-03-21 10:17:45 51°39.749 2°48.46 15.2393 0.004465 0.028221 -3.020363
2011-03-21 10:18:45 51°39.906 2°48.553 15.2692 0.004465 0.028221 -3.020363
2011-03-21 10:19:45 51°40.062 2°48.64 15.274 0.004465 0.028221 -3.020363
2011-03-21 10:20:44 51°40.215 2°48.746 15.3098 0.004465 0.028222 -3.020363
2011-03-21 10:21:45 51°40.374 2°48.854 15.3475 0.004465 0.028222 -3.020363
2011-03-21 10:22:44 51°40.531 2°48.941 15.36 0.004465 0.028222 -3.020363
2011-03-21 10:23:45 51°40.692 2°49.043 15.4011 0.004465 0.028222 -3.020363
2011-03-21 10:24:45 51°40.851 2°49.139 15.4256 0.004465 0.028223 -3.020363
2011-03-21 10:25:45 51°41.012 2°49.23 14.9413 0.004465 0.028222 -3.020363
2011-03-21 10:26:45 51°41.17 2°49.33 14.9819 0.004465 0.028223 -3.020363
2011-03-21 10:27:44 51°41.327 2°49.421 15.0214 0.004465 0.028224 -3.020363
2011-03-21 10:28:45 51°41.494 2°49.494 15.0366 0.004465 0.028224 -3.020363
2011-03-21 10:29:45 51°41.654 2°49.58 15.0525 0.004465 0.028224 -3.020363
2011-03-21 10:30:45 51°41.806 2°49.696 15.093 0.004465 0.028225 -3.020363
2011-03-21 10:31:44 51°41.952 2°49.78 14.9979 0.004465 0.028225 -3.020363
2011-03-21 10:32:45 51°42.072 2°49.565 15.1505 0.004465 0.028226 -3.020363
2011-03-21 10:33:45 51°42.183 2°49.309 15.1221 0.004465 0.028226 -3.020363
2011-03-21 10:34:45 51°42.293 2°49.048 15.1247 0.004465 0.028226 -3.020363
2011-03-21 10:35:45 51°42.407 2°48.793 15.1491 0.004465 0.028227 -3.020363
2011-03-21 10:36:45 51°42.516 2°48.533 15.0759 0.004465 0.028227 -3.020363
2011-03-21 10:37:45 51°42.471 2°48.253 15.058 0.004465 0.028228 -3.020363
2011-03-21 10:38:45 51°42.267 2°48.12 15.2125 0.004465 0.028229 -3.020363
2011-03-21 10:39:45 51°42.038 2°47.984 15.1913 0.004465 0.02823 -3.020363
2011-03-21 10:40:45 51°41.804 2°47.873 15.221 0.004465 0.02823 -3.020363
2011-03-21 10:41:45 51°41.571 2°47.756 15.2331 0.004465 0.028231 -3.020363
2011-03-21 10:42:45 51°41.344 2°47.609 15.2609 0.004465 0.028232 -3.020363
2011-03-21 10:43:45 51°41.118 2°47.461 15.2567 0.004465 0.028232 -3.020363
2011-03-21 10:44:45 51°40.89 2°47.319 15.2684 0.004465 0.028233 -3.020363
2011-03-21 10:45:45 51°40.659 2°47.196 15.3159 0.004465 0.028233 -3.020363
2011-03-21 10:46:45 51°40.429 2°47.07 15.3239 0.004465 0.028234 -3.020363
2011-03-21 10:47:45 51°40.2 2°46.945 15.3329 0.004465 0.028234 -3.020363
2011-03-21 10:48:45 51°39.971 2°46.822 15.3465 0.004465 0.028234 -3.020363
2011-03-21 10:49:45 51°39.741 2°46.699 15.3637 0.004465 0.028235 -3.020363
2011-03-21 10:50:45 51°39.511 2°46.575 15.3792 0.004465 0.028235 -3.020363
2011-03-21 10:51:45 51°39.281 2°46.451 15.393 0.004465 0.028235 -3.020363
2011-03-21 10:52:45 51°39.05 2°46.329 15.4186 0.004465 0.028235 -3.020363
2011-03-21 10:53:45 51°38.82 2°46.209 15.4324 0.004465 0.028235 -3.020363
2011-03-21 10:54:45 51°38.591 2°46.089 15.4486 0.004465 0.028236 -3.020363
2011-03-21 10:55:45 51°38.362 2°45.968 15.4596 0.004465 0.028236 -3.020363
2011-03-21 10:56:45 51°38.134 2°45.848 15.4736 0.004465 0.028236 -3.020363
2011-03-21 10:57:45 51°37.905 2°45.725 15.4923 0.004465 0.028236 -3.020363
2011-03-21 10:58:45 51°37.677 2°45.603 15.5068 0.004465 0.028237 -3.020363
2011-03-21 10:59:45 51°37.449 2°45.482 15.5208 0.004465 0.028237 -3.020363
2011-03-21 11:00:45 51°37.221 2°45.362 15.536 0.004465 0.028237 -3.020363
2011-03-21 11:01:45 51°36.994 2°45.234 15.5498 0.004465 0.028237 -3.020363
2011-03-21 11:02:45 51°36.768 2°45.104 15.5647 0.004465 0.028237 -3.020363
2011-03-21 11:03:45 51°36.541 2°44.981 15.5807 0.004465 0.028238 -3.020363
2011-03-21 11:04:45 51°36.313 2°44.865 15.5925 0.004465 0.028238 -3.020363
2011-03-21 11:05:45 51°36.085 2°44.748 15.6105 0.004465 0.028238 -3.020363
2011-03-21 11:06:45 51°35.857 2°44.631 15.6216 0.004465 0.028238 -3.020363
2011-03-21 11:07:45 51°35.63 2°44.515 15.6368 0.004465 0.028238 -3.020363
2011-03-21 11:08:45 51°35.404 2°44.394 15.6433 0.004465 0.028238 -3.020363
2011-03-21 11:09:45 51°35.181 2°44.259 15.652 0.004465 0.028238 -3.020363
2011-03-21 11:10:45 51°34.956 2°44.127 15.6766 0.004465 0.028239 -3.020363
2011-03-21 11:11:45 51°34.731 2°43.998 15.686 0.004465 0.028239 -3.020363
2011-03-21 11:12:45 51°34.505 2°43.869 15.6982 0.004465 0.028239 -3.020363
2011-03-21 11:13:45 51°34.28 2°43.741 15.7145 0.004465 0.028239 -3.020363
2011-03-21 11:14:45 51°34.054 2°43.61 15.7276 0.004465 0.028239 -3.020363
2011-03-21 11:15:45 51°33.827 2°43.489 15.736 0.004465 0.028239 -3.020363
2011-03-21 11:16:45 51°33.6 2°43.374 15.7556 0.004465 0.028239 -3.020363
2011-03-21 11:17:45 51°33.374 2°43.255 15.7714 0.004465 0.028239 -3.020363
2011-03-21 11:18:45 51°33.151 2°43.131 15.7162 0.004465 0.028239 -3.020363
2011-03-21 11:19:45 51°33.004 2°42.853 15.78 0.004465 0.028239 -3.020363
2011-03-21 11:20:45 51°32.876 2°42.542 15.783 0.004465 0.028239 -3.020363
2011-03-21 11:21:45 51°32.749 2°42.23 15.8094 0.004465 0.028239 -3.020363
2011-03-21 11:22:45 51°32.621 2°41.919 15.8239 0.004465 0.02824 -3.020363
2011-03-21 11:23:45 51°32.496 2°41.606 15.8369 0.004465 0.02824 -3.020363
2011-03-21 11:24:45 51°32.371 2°41.292 15.8379 0.004465 0.028241 -3.020363
2011-03-21 11:25:45 51°32.248 2°40.979 15.852 0.004465 0.028241 -3.020363
2011-03-21 11:26:45 51°32.124 2°40.666 15.8573 0.004465 0.028242 -3.020363
2011-03-21 11:27:45 51°32.074 2°40.335 15.8138 0.004465 0.028242 -3.020363
2011-03-21 11:28:45 51°32.244 2°40.234 15.8739 0.004465 0.028243 -3.020363
2011-03-21 11:29:45 51°32.444 2°40.272 15.9048 0.004465 0.028244 -3.020363
2011-03-21 11:30:45 51°32.645 2°40.315 15.9072 0.004465 0.028245 -3.020363
2011-03-21 11:31:45 51°32.841 2°40.389 15.9308 0.004465 0.028245 -3.020363
2011-03-21 11:32:45 51°33.028 2°40.509 15.9379 0.004465 0.028246 -3.020363
2011-03-21 11:33:45 51°33.212 2°40.654 15.9377 0.004465 0.028246 -3.020363
2011-03-21 11:34:45 51°33.397 2°40.794 15.9644 0.004465 0.028246 -3.020363
2011-03-21 11:35:45 51°33.581 2°40.935 15.9664 0.004465 0.028246 -3.020363
2011-03-21 11:36:44 51°33.762 2°41.076 15.9782 0.004465 0.028246 -3.020363
2011-03-21 11:37:45 51°33.949 2°41.223 16.0033 0.004465 0.028246 -3.020363
2011-03-21 11:38:45 51°34.143 2°41.332 16.0137 0.004465 0.028246 -3.020363
2011-03-21 11:39:45 51°34.339 2°41.433 16.0284 0.004465 0.028246 -3.020363
2011-03-21 11:40:45 51°34.537 2°41.533 16.0325 0.004465 0.028246 -3.020363
2011-03-21 11:41:45 51°34.735 2°41.635 16.064 0.004465 0.028246 -3.020363
2011-03-21 11:42:45 51°34.936 2°41.735 16.0593 0.004465 0.028246 -3.020363
2011-03-21 11:43:45 51°35.136 2°41.838 16.077 0.004465 0.028246 -3.020363
2011-03-21 11:44:45 51°35.337 2°41.942 16.0804 0.004465 0.028246 -3.020363
2011-03-21 11:45:45 51°35.539 2°42.046 16.0877 0.004465 0.028246 -3.020363
2011-03-21 11:46:45 51°35.74 2°42.149 16.0787 0.004465 0.028246 -3.020363
2011-03-21 11:47:45 51°35.941 2°42.251 16.1248 0.004465 0.028246 -3.020363
2011-03-21 11:48:45 51°36.142 2°42.354 16.1225 0.004465 0.028246 -3.020363
2011-03-21 11:49:45 51°36.345 2°42.456 16.116 0.004465 0.028246 -3.020363
2011-03-21 11:50:45 51°36.546 2°42.559 16.1434 0.004465 0.028246 -3.020363
2011-03-21 11:51:45 51°36.749 2°42.658 16.1302 0.004465 0.028246 -3.020363
2011-03-21 11:52:45 51°36.951 2°42.759 16.1678 0.004465 0.028246 -3.020363
2011-03-21 11:53:45 51°37.154 2°42.86 16.1705 0.004465 0.028246 -3.020363
2011-03-21 11:54:44 51°37.352 2°42.961 16.1643 0.004465 0.028246 -3.020363
2011-03-21 11:55:45 51°37.558 2°43.064 16.1974 0.004465 0.028246 -3.020363
2011-03-21 11:56:45 51°37.761 2°43.165 16.1758 0.004465 0.028246 -3.020363
2011-03-21 11:57:45 51°37.965 2°43.266 16.2144 0.004465 0.028246 -3.020363
2011-03-21 11:58:45 51°38.17 2°43.366 16.2272 0.004465 0.028246 -3.020363
2011-03-21 11:59:45 51°38.374 2°43.467 16.225 0.004465 0.028246 -3.020363
2011-03-21 12:00:45 51°38.579 2°43.568 16.259 0.004465 0.028246 -3.020363
2011-03-21 12:01:45 51°38.784 2°43.671 16.2642 0.004465 0.028246 -3.020363
2011-03-21 12:02:45 51°38.99 2°43.771 16.255 0.004465 0.028246 -3.020363
2011-03-21 12:03:45 51°39.196 2°43.871 16.271 0.004465 0.028246 -3.020363
2011-03-21 12:04:45 51°39.403 2°43.971 16.26 0.004465 0.028246 -3.020363
2011-03-21 12:05:45 51°39.609 2°44.074 16.292 0.004465 0.028245 -3.020363
2011-03-21 12:06:45 51°39.817 2°44.176 16.277 0.004465 0.028245 -3.020363
2011-03-21 12:07:45 51°40.024 2°44.288 16.3051 0.004465 0.028245 -3.020363
2011-03-21 12:08:45 51°40.228 2°44.42 16.3062 0.004465 0.028246 -3.020363
2011-03-21 12:09:45 51°40.433 2°44.548 16.3372 0.004465 0.028246 -3.020363
2011-03-21 12:10:45 51°40.638 2°44.675 16.3045 0.004465 0.028246 -3.020363
2011-03-21 12:11:45 51°40.844 2°44.802 16.3678 0.004465 0.028246 -3.020363
2011-03-21 12:12:44 51°41.047 2°44.927 16.3691 0.004465 0.028246 -3.020363
2011-03-21 12:13:45 51°41.258 2°45.056 16.351 0.004465 0.028245 -3.020363
2011-03-21 12:14:44 51°41.462 2°45.181 16.37 0.004465 0.028245 -3.020363
2011-03-21 12:15:45 51°41.673 2°45.312 16.3859 0.004465 0.028245 -3.020363
2011-03-21 12:16:45 51°41.882 2°45.44 16.3799 0.004465 0.028245 -3.020363
2011-03-21 12:17:44 51°42.087 2°45.563 16.4173 0.004465 0.028245 -3.020363
2011-03-21 12:18:45 51°42.298 2°45.695 16.4318 0.004465 0.028245 -3.020363
2011-03-21 12:19:44 51°42.502 2°45.819 16.4093 0.004465 0.028244 -3.020363
2011-03-21 12:20:45 51°42.715 2°45.947 16.4054 0.004465 0.028244 -3.020363
2011-03-21 12:21:44 51°42.921 2°46.075 16.4548 0.004465 0.028244 -3.020363
2011-03-21 12:22:45 51°43.134 2°46.208 16.4486 0.004465 0.028244 -3.020363
2011-03-21 12:23:44 51°43.34 2°46.286 16.535 0.004465 0.028244 -3.020363
2011-03-21 12:24:45 51°43.492 2°46.067 16.4827 0.004465 0.028244 -3.020363
2011-03-21 12:25:45 51°43.621 2°45.799 16.499 0.004465 0.028244 -3.020363
2011-03-21 12:26:45 51°43.753 2°45.535 16.5161 0.004465 0.028244 -3.020363
2011-03-21 12:27:44 51°43.882 2°45.274 16.4995 0.004465 0.028244 -3.020363
2011-03-21 12:28:44 51°44.016 2°45.01 16.5367 0.004465 0.028244 -3.020363
2011-03-21 12:29:45 51°44.15 2°44.741 16.5109 0.004465 0.028244 -3.020363
2011-03-21 12:30:44 51°44.282 2°44.483 16.5356 0.004465 0.028244 -3.020363
2011-03-21 12:31:45 51°44.416 2°44.213 16.5377 0.004465 0.028244 -3.020363
2011-03-21 12:32:45 51°44.478 2°43.923 16.6625 0.004465 0.028245 -3.020363
2011-03-21 12:33:45 51°44.307 2°43.778 16.4768 0.004465 0.028245 -3.020363
2011-03-21 12:34:44 51°44.101 2°43.723 16.4945 0.004465 0.028246 -3.020363
2011-03-21 12:35:45 51°43.881 2°43.732 16.5473 0.004465 0.028246 -3.020363
2011-03-21 12:36:45 51°43.665 2°43.738 16.5679 0.004465 0.028246 -3.020363
2011-03-21 12:37:44 51°43.452 2°43.742 16.5753 0.004465 0.028246 -3.020363
2011-03-21 12:38:45 51°43.232 2°43.743 16.4492 0.004465 0.028246 -3.020363
2011-03-21 12:39:44 51°43.028 2°43.683 16.5599 0.004465 0.028246 -3.020363
2011-03-21 12:40:45 51°42.824 2°43.581 16.5895 0.004465 0.028246 -3.020363
2011-03-21 12:41:45 51°42.625 2°43.478 16.6038 0.004465 0.028246 -3.020363
2011-03-21 12:42:45 51°42.427 2°43.375 16.609 0.004465 0.028245 -3.020363
2011-03-21 12:43:44 51°42.232 2°43.274 16.6146 0.004465 0.028245 -3.020363
2011-03-21 12:44:45 51°42.031 2°43.174 16.6487 0.004465 0.028245 -3.020363
2011-03-21 12:45:44 51°41.837 2°43.074 16.6045 0.004465 0.028245 -3.020363
2011-03-21 12:46:45 51°41.636 2°42.974 16.6245 0.004465 0.028244 -3.020363
2011-03-21 12:47:45 51°41.439 2°42.876 16.6633 0.004465 0.028244 -3.020363
2011-03-21 12:48:45 51°41.243 2°42.781 16.6256 0.004465 0.028244 -3.020363
2011-03-21 12:49:45 51°41.049 2°42.684 16.67 0.004465 0.028244 -3.020363
2011-03-21 12:50:44 51°40.86 2°42.589 16.6906 0.004465 0.028244 -3.020363
2011-03-21 12:51:45 51°40.663 2°42.495 16.7194 0.004465 0.028244 -3.020363
2011-03-21 12:52:44 51°40.472 2°42.406 16.6967 0.004465 0.028244 -3.020363
2011-03-21 12:53:45 51°40.275 2°42.309 16.7245 0.004465 0.028244 -3.020363
2011-03-21 12:54:45 51°40.083 2°42.216 16.7254 0.004465 0.028243 -3.020363
2011-03-21 12:55:45 51°39.889 2°42.123 16.7249 0.004465 0.028243 -3.020363
2011-03-21 12:56:44 51°39.699 2°42.034 16.736 0.004465 0.028243 -3.020363
2011-03-21 12:57:45 51°39.502 2°41.942 16.7557 0.004465 0.028242 -3.020363
2011-03-21 12:58:45 51°39.309 2°41.854 16.7646 0.004465 0.028242 -3.020363
2011-03-21 12:59:44 51°39.121 2°41.762 16.7263 0.004465 0.028241 -3.020363
2011-03-21 13:00:45 51°38.932 2°41.653 16.7777 0.004465 0.028241 -3.020363
2011-03-21 13:01:44 51°38.748 2°41.557 16.8171 0.004465 0.028241 -3.020363
2011-03-21 13:02:44 51°38.563 2°41.465 16.8082 0.004465 0.02824 -3.020363
2011-03-21 13:03:44 51°38.379 2°41.358 16.825 0.004465 0.02824 -3.020363
2011-03-21 13:04:44 51°38.192 2°41.257 16.8134 0.004465 0.02824 -3.020363
2011-03-21 13:05:44 51°38.005 2°41.156 16.8478 0.004465 0.028239 -3.020363
2011-03-21 13:06:45 51°37.816 2°41.055 16.8593 0.004465 0.028239 -3.020363
2011-03-21 13:07:44 51°37.634 2°40.956 16.8654 0.004465 0.028239 -3.020363
2011-03-21 13:08:44 51°37.448 2°40.857 16.8568 0.004465 0.028238 -3.020363
2011-03-21 13:09:45 51°37.26 2°40.755 16.8674 0.004465 0.028238 -3.020363
2011-03-21 13:10:45 51°37.075 2°40.656 16.8842 0.004465 0.028238 -3.020363
2011-03-21 13:11:44 51°36.893 2°40.558 16.8793 0.004465 0.028237 -3.020363
2011-03-21 13:12:45 51°36.706 2°40.453 16.8903 0.004465 0.028237 -3.020363
2011-03-21 13:13:44 51°36.525 2°40.353 16.9314 0.004465 0.028236 -3.020363
2011-03-21 13:14:45 51°36.337 2°40.251 16.8869 0.004465 0.028236 -3.020363
2011-03-21 13:15:44 51°36.153 2°40.157 16.9248 0.004465 0.028235 -3.020363
2011-03-21 13:16:45 51°35.965 2°40.061 16.9392 0.004465 0.028235 -3.020363
2011-03-21 13:17:44 51°35.784 2°39.972 16.9443 0.004465 0.028235 -3.020363
2011-03-21 13:18:45 51°35.599 2°39.876 16.9507 0.004465 0.028234 -3.020363
2011-03-21 13:19:44 51°35.42 2°39.783 16.989 0.004465 0.028234 -3.020363
2011-03-21 13:20:45 51°35.235 2°39.69 16.9241 0.004465 0.028234 -3.020363
2011-03-21 13:21:44 51°35.057 2°39.6 16.9876 0.004465 0.028233 -3.020363
2011-03-21 13:22:45 51°34.873 2°39.509 16.9787 0.004465 0.028233 -3.020363
2011-03-21 13:23:45 51°34.692 2°39.417 16.9706 0.004465 0.028232 -3.020363
2011-03-21 13:24:44 51°34.515 2°39.324 16.9767 0.004465 0.028232 -3.020363
2011-03-21 13:25:45 51°34.331 2°39.232 16.9869 0.004465 0.028232 -3.020363
2011-03-21 13:26:44 51°34.152 2°39.139 16.9899 0.004465 0.028231 -3.020363
2011-03-21 13:27:44 51°33.968 2°39.048 16.9977 0.004465 0.028231 -3.020363
2011-03-21 13:28:44 51°33.785 2°38.953 17.0306 0.004465 0.02823 -3.020363
2011-03-21 13:29:44 51°33.601 2°38.862 17.0309 0.004465 0.02823 -3.020363
2011-03-21 13:30:44 51°33.431 2°38.784 17.088 0.004465 0.02823 -3.020363
2011-03-21 13:31:44 51°33.312 2°38.732 17.0547 0.004465 0.028229 -3.020363
2011-03-21 13:32:45 51°33.264 2°38.584 17.0444 0.004465 0.028229 -3.020363
2011-03-21 13:33:45 51°33.314 2°38.417 17.0756 0.004465 0.028229 -3.020363
2011-03-21 13:34:45 51°33.432 2°38.304 17.0671 0.004465 0.028228 -3.020363
2011-03-21 13:35:44 51°33.588 2°38.314 17.0845 0.004465 0.028228 -3.020363
2011-03-21 13:36:44 51°33.74 2°38.443 17.0977 0.004465 0.028228 -3.020363
2011-03-21 13:37:44 51°33.852 2°38.66 17.1452 0.004465 0.028227 -3.020363
2011-03-21 13:38:45 51°33.888 2°38.929 17.1084 0.004465 0.028227 -3.020363
2011-03-21 13:39:44 51°33.836 2°39.153 17.1297 0.004465 0.028227 -3.020363
2011-03-21 13:40:45 51°33.727 2°39.275 17.1667 0.004465 0.028226 -3.020363
2011-03-21 13:41:45 51°33.613 2°39.265 17.173 0.004465 0.028226 -3.020363
2011-03-21 13:42:44 51°33.487 2°39.141 17.0751 0.004465 0.028225 -3.020363
2011-03-21 13:43:45 51°33.332 2°38.958 17.143 0.004465 0.028225 -3.020363
2011-03-21 13:44:44 51°33.18 2°38.793 17.1387 0.004465 0.028225 -3.020363
2011-03-21 13:45:45 51°33.004 2°38.667 17.1211 0.004465 0.028224 -3.020363
2011-03-21 13:46:44 51°32.837 2°38.541 17.1765 0.004465 0.028224 -3.020363
2011-03-21 13:47:45 51°32.652 2°38.451 17.1857 0.004465 0.028224 -3.020363
2011-03-21 13:48:44 51°32.467 2°38.385 17.2218 0.004465 0.028223 -3.020363
2011-03-21 13:49:44 51°32.279 2°38.317 17.1946 0.004465 0.028223 -3.020363
2011-03-21 13:50:44 51°32.091 2°38.252 17.2001 0.004465 0.028222 -3.020363
2011-03-21 13:51:44 51°31.907 2°38.172 17.1854 0.004465 0.028222 -3.020363
2011-03-21 13:52:45 51°31.725 2°38.075 17.1855 0.004465 0.028221 -3.020363
2011-03-21 13:53:45 51°31.548 2°37.98 17.2274 0.004465 0.028221 -3.020363
2011-03-21 13:54:44 51°31.371 2°37.894 17.219 0.004465 0.02822 -3.020363
2011-03-21 13:55:44 51°31.192 2°37.803 17.2214 0.004465 0.02822 -3.020363
2011-03-21 13:56:45 51°31.01 2°37.718 17.2596 0.004465 0.02822 -3.020363
2011-03-21 13:57:44 51°30.832 2°37.647 17.1963 0.004465 0.028219 -3.020363
2011-03-21 13:58:45 51°30.655 2°37.552 17.2169 0.004465 0.028219 -3.020363
2011-03-21 13:59:45 51°30.479 2°37.46 17.2838 0.004465 0.028219 -3.020363
2011-03-21 14:00:44 51°30.303 2°37.371 17.2624 0.004465 0.028218 -3.020363
2011-03-21 14:01:44 51°30.124 2°37.283 17.2474 0.004465 0.028218 -3.020363
2011-03-21 14:02:44 51°29.947 2°37.191 17.3065 0.004465 0.028217 -3.020363
2011-03-21 14:03:44 51°29.769 2°37.1 17.317 0.004465 0.028217 -3.020363
2011-03-21 14:04:44 51°29.594 2°37.013 17.3186 0.004465 0.028216 -3.020363
2011-03-21 14:05:44 51°29.418 2°36.925 17.3209 0.004465 0.028216 -3.020363
2011-03-21 14:06:44 51°29.241 2°36.839 17.2939 0.004465 0.028215 -3.020363
2011-03-21 14:07:44 51°29.064 2°36.75 17.3118 0.004465 0.028215 -3.020363
2011-03-21 14:08:45 51°28.881 2°36.759 17.3651 0.004465 0.028214 -3.020363
2011-03-21 14:09:44 51°28.742 2°37.021 17.3213 0.004465 0.028214 -3.020363
2011-03-21 14:10:45 51°28.593 2°37.299 17.3302 0.004465 0.028214 -3.020363
2011-03-21 14:11:44 51°28.433 2°37.531 17.3448 0.004465 0.028213 -3.020363
2011-03-21 14:12:45 51°28.262 2°37.752 17.3356 0.004465 0.028213 -3.020363
2011-03-21 14:13:44 51°28.097 2°37.962 17.344 0.004465 0.028212 -3.020363
2011-03-21 14:14:45 51°27.926 2°38.177 17.3661 0.004465 0.028212 -3.020363
2011-03-21 14:15:44 51°27.762 2°38.388 17.3953 0.004465 0.028211 -3.020363
2011-03-21 14:16:45 51°27.594 2°38.607 17.3308 0.004465 0.02821 -3.020363
2011-03-21 14:17:45 51°27.432 2°38.825 17.3558 0.004465 0.028209 -3.020363
2011-03-21 14:18:45 51°27.269 2°39.042 17.3524 0.004465 0.028209 -3.020363
2011-03-21 14:19:45 51°27.108 2°39.265 17.4109 0.004465 0.028208 -3.020363
2011-03-21 14:20:45 51°26.964 2°39.527 17.3605 0.004465 0.028207 -3.020363
2011-03-21 14:21:44 51°26.82 2°39.783 17.3846 0.004465 0.028207 -3.020363
2011-03-21 14:22:44 51°26.674 2°40.046 17.3915 0.004465 0.028206 -3.020363
2011-03-21 14:23:45 51°26.524 2°40.312 17.3955 0.004465 0.028205 -3.020363
2011-03-21 14:24:44 51°26.378 2°40.569 17.3777 0.004465 0.028204 -3.020363
2011-03-21 14:25:44 51°26.221 2°40.809 17.4204 0.004465 0.028204 -3.020363
2011-03-21 14:26:44 51°26.064 2°41.047 17.4316 0.004465 0.028203 -3.020363
2011-03-21 14:27:44 51°25.903 2°41.28 17.4245 0.004465 0.028202 -3.020363
2011-03-21 14:28:44 51°25.74 2°41.506 17.4359 0.004465 0.028201 -3.020363
2011-03-21 14:29:44 51°25.582 2°41.74 17.4659 0.004465 0.0282 -3.020363
2011-03-21 14:30:44 51°25.423 2°41.972 17.484 0.004465 0.028199 -3.020363
2011-03-21 14:31:44 51°25.264 2°42.204 17.4599 0.004465 0.028199 -3.020363
2011-03-21 14:32:45 51°25.102 2°42.44 17.4844 0.004465 0.028198 -3.020363
2011-03-21 14:33:44 51°24.945 2°42.668 17.4643 0.004465 0.028197 -3.020363
2011-03-21 14:34:45 51°24.784 2°42.909 17.3603 0.004465 0.028197 -3.020363
2011-03-21 14:35:45 51°24.613 2°43.11 17.4608 0.004465 0.028196 -3.020363
2011-03-21 14:36:44 51°24.443 2°43.309 17.4634 0.004465 0.028196 -3.020363
2011-03-21 14:37:45 51°24.27 2°43.52 17.4557 0.004465 0.028195 -3.020363
2011-03-21 14:38:44 51°24.1 2°43.723 17.4803 0.004465 0.028194 -3.020363
2011-03-21 14:39:45 51°23.925 2°43.932 17.5253 0.004465 0.028193 -3.020363
2011-03-21 14:40:44 51°23.754 2°44.137 17.4997 0.004465 0.028193 -3.020363
2011-03-21 14:41:45 51°23.577 2°44.344 17.4676 0.004465 0.028192 -3.020363
2011-03-21 14:42:44 51°23.405 2°44.542 17.5292 0.004465 0.028192 -3.020363
2011-03-21 14:43:44 51°23.229 2°44.739 17.523 0.004465 0.028191 -3.020363
2011-03-21 14:44:44 51°23.055 2°44.943 17.5315 0.004465 0.02819 -3.020363
2011-03-21 14:45:44 51°22.882 2°45.145 17.5463 0.004465 0.02819 -3.020363
2011-03-21 14:46:44 51°22.714 2°45.273 17.4243 0.004465 0.028189 -3.020363
2011-03-21 14:47:44 51°22.581 2°45.168 17.5477 0.004465 0.028189 -3.020363
2011-03-21 14:48:45 51°22.442 2°45.06 17.4716 0.004465 0.028189 -3.020363
2011-03-21 14:49:44 51°22.271 2°44.942 17.5181 0.004465 0.028189 -3.020363
2011-03-21 14:50:44 51°22.077 2°44.917 17.5757 0.004465 0.028189 -3.020363
2011-03-21 14:51:44 51°21.884 2°45.039 17.5958 0.004465 0.028189 -3.020363
2011-03-21 14:52:45 51°21.712 2°45.261 17.5632 0.004465 0.028188 -3.020363
2011-03-21 14:53:44 51°21.558 2°45.504 17.5381 0.004465 0.028188 -3.020363
2011-03-21 14:54:44 51°21.4 2°45.752 17.5957 0.004465 0.028188 -3.020363
2011-03-21 14:55:45 51°21.249 2°46.022 17.5409 0.004465 0.028187 -3.020363
2011-03-21 14:56:44 51°21.104 2°46.278 17.6069 0.004465 0.028187 -3.020363
2011-03-21 14:57:45 51°20.948 2°46.528 17.5925 0.004465 0.028186 -3.020363
2011-03-21 14:58:44 51°20.787 2°46.753 17.5715 0.004465 0.028186 -3.020363
2011-03-21 14:59:45 51°20.618 2°46.989 17.5781 0.004465 0.028185 -3.020363
2011-03-21 15:00:44 51°20.455 2°47.214 17.6049 0.004465 0.028185 -3.020363
2011-03-21 15:01:44 51°20.289 2°47.442 17.5609 0.004465 0.028184 -3.020363
2011-03-21 15:02:44 51°20.126 2°47.674 17.6043 0.004465 0.028184 -3.020363
2011-03-21 15:03:45 51°19.958 2°47.906 17.5773 0.004465 0.028183 -3.020363
2011-03-21 15:04:44 51°19.796 2°48.131 17.5914 0.004465 0.028182 -3.020363
2011-03-21 15:05:45 51°19.63 2°48.366 17.6224 0.004465 0.028182 -3.020363
2011-03-21 15:06:45 51°19.467 2°48.595 17.6699 0.004465 0.028181 -3.020363
2011-03-21 15:07:45 51°19.306 2°48.825 17.5915 0.004465 0.028181 -3.020363
2011-03-21 15:08:44 51°19.147 2°49.046 17.6151 0.004465 0.028181 -3.020363
2011-03-21 15:09:44 51°18.982 2°49.269 17.6795 0.004465 0.028181 -3.020363
2011-03-21 15:10:45 51°18.814 2°49.492 17.6423 0.004465 0.02818 -3.020363
2011-03-21 15:11:44 51°18.65 2°49.707 17.6312 0.004465 0.02818 -3.020363
2011-03-21 15:12:44 51°18.484 2°49.928 17.6529 0.004465 0.028179 -3.020363
2011-03-21 15:13:44 51°18.317 2°50.148 17.7004 0.004465 0.028179 -3.020363
2011-03-21 15:14:44 51°18.151 2°50.373 17.7167 0.004465 0.028178 -3.020363
2011-03-21 15:15:44 51°17.984 2°50.594 17.7191 0.004465 0.028178 -3.020363
2011-03-21 15:16:45 51°17.818 2°50.819 17.7398 0.004465 0.028177 -3.020363
2011-03-21 15:17:44 51°17.658 2°51.037 17.7213 0.004465 0.028177 -3.020363
2011-03-21 15:18:44 51°17.497 2°51.262 17.667 0.004465 0.028177 -3.020363
2011-03-21 15:19:44 51°17.334 2°51.483 17.7351 0.004465 0.028176 -3.020363
2011-03-21 15:20:44 51°17.167 2°51.701 17.7847 0.004465 0.028176 -3.020363
2011-03-21 15:21:44 51°17.001 2°51.921 17.7548 0.004465 0.028176 -3.020363
2011-03-21 15:22:44 51°16.833 2°52.141 17.7083 0.004465 0.028176 -3.020363
2011-03-21 15:23:45 51°16.662 2°52.364 17.7888 0.004465 0.028176 -3.020363
2011-03-21 15:24:45 51°16.499 2°52.594 17.7472 0.004465 0.028175 -3.020363
2011-03-21 15:25:44 51°16.337 2°52.821 17.7455 0.004465 0.028175 -3.020363
2011-03-21 15:26:45 51°16.166 2°53.038 17.7847 0.004465 0.028174 -3.020363
2011-03-21 15:27:44 51°15.997 2°53.245 17.7931 0.004465 0.028174 -3.020363
2011-03-21 15:28:44 51°15.826 2°53.459 17.8046 0.004465 0.028174 -3.020363
2011-03-21 15:29:44 51°15.654 2°53.674 17.8073 0.004465 0.028173 -3.020363
2011-03-21 15:30:45 51°15.475 2°53.885 17.8179 0.004465 0.028173 -3.020363
2011-03-21 15:31:44 51°15.301 2°54.09 17.8249 0.004465 0.028173 -3.020363
2011-03-21 15:32:44 51°15.124 2°54.291 17.8491 0.004465 0.028173 -3.020363
2011-03-21 15:33:44 51°14.955 2°54.508 17.8208 0.004465 0.028174 -3.020363
2011-03-21 15:34:44 51°14.786 2°54.715 17.8667 0.004465 0.028174 -3.020363
2011-03-21 15:35:44 51°14.614 2°54.91 17.8855 0.004465 0.028174 -3.020363
2011-03-21 15:36:44 51°14.44 2°55.102 17.9158 0.004465 0.028174 -3.020363
2011-03-21 15:37:44 51°14.265 2°55.29 17.8504 0.004465 0.028174 -3.020363
2011-03-21 15:38:44 51°14.118 2°55.412 17.9499 0.004465 0.028175 -3.020363
2011-03-21 15:39:45 51°14.03 2°55.476 18.0342 0.004465 0.028175 -3.020363
2011-03-21 15:40:44 51°13.956 2°55.528 18.0064 0.004465 0.028175 -3.020363
2011-03-21 15:41:44 51°13.884 2°55.581 17.995 0.004465 0.028175 -3.020363
2011-03-21 15:42:45 51°13.814 2°55.64 17.9981 0.004465 0.028176 -3.020363
2011-03-21 15:43:44 51°13.756 2°55.711 18.0229 0.004465 0.028176 -3.020363
2011-03-21 15:44:44 51°13.718 2°55.785 18.007 0.004465 0.028177 -3.020363
2011-03-21 15:45:44 51°13.693 2°55.849 18.0089 0.004465 0.028177 -3.020363
2011-03-21 15:46:44 51°13.675 2°55.897 18.0384 0.004465 0.028178 -3.020363
2011-03-21 15:47:45 51°13.667 2°55.937 18.0428 0.004465 0.028179 -3.020363
2011-03-21 15:48:44 51°13.663 2°55.957 18.056 0.004465 0.02818 -3.020363